This demonstration page uses our WeatherBlox Daily Observations layout. Learn more.

Left ArrowRight Arrow

39.01783, -85.05884

Hourly Observations for December 31, 2019

Temp ( °F °C ) Dew Point ( °F °C ) Humidity (%) Winds ( mph kmh ) Pressure ( in mb ) Visibility ( mi km ) Precip ( " mm )
12:52 am 00:52 Cloudy 37 2.8 27 -2.8 67 67 SW 16 26 29.74 1007 10 16 0.00 0.00
1:52 am 01:52 Cloudy 37 2.8 27 -2.8 67 67 SW 13 20 29.74 1007 10 16 0.00 0.00
2:52 am 02:52 Cloudy 37 2.8 27 -2.8 67 67 SW 17 28 29.75 1007 10 16 0.00 0.00
3:52 am 03:52 Cloudy 37 2.8 26 -3.3 65 65 WSW 13 20 29.76 1008 10 16 0.00 0.00
4:52 am 04:52 Cloudy 37 2.8 26 -3.3 65 65 WSW 14 22 29.76 1008 10 16 0.00 0.00
5:26 am 05:26 Cloudy 36 2.2 27 -2.8 70 70 WSW 12 19 29.79 1009 10 16 0.00 0.00
5:52 am 05:52 Cloudy 36 2.2 27 -2.8 70 70 WSW 18 30 29.77 1008 10 16 0.00 0.00
6:52 am 06:52 Cloudy 36 2.2 25 -3.9 64 64 WSW 20 31 29.78 1009 10 16 0.00 0.00
7:52 am 07:52 Cloudy 35 1.7 25 -3.9 67 67 WSW 20 31 29.79 1009 10 16 0.00 0.00
8:52 am 08:52 Cloudy 35 1.7 25 -3.9 67 67 SW 18 30 29.79 1009 10 16 0.00 0.00
9:52 am 09:52 Cloudy 35 1.7 25 -3.9 67 67 WSW 18 30 29.82 1010 10 16 0.00 0.00
10:52 am 10:52 Cloudy 35 1.7 25 -3.9 67 67 WSW 16 26 29.83 1010 10 16 0.00 0.00
11:52 am 11:52 Cloudy 35 1.7 25 -3.9 67 67 WSW 18 30 29.83 1010 10 16 0.00 0.00
12:52 pm 12:52 Cloudy 35 1.7 25 -3.9 67 67 WSW 14 22 29.84 1010 10 16 0.00 0.00
1:52 pm 13:52 Cloudy 35 1.7 25 -3.9 67 67 WSW 20 31 29.84 1011 10 16 0.00 0.00
2:52 pm 14:52 Cloudy 35 1.7 26 -3.3 70 70 WSW 22 35 29.85 1011 10 16 0.00 0.00
3:52 pm 15:52 Cloudy 35 1.7 26 -3.3 70 70 W 15 24 29.85 1011 10 16 0.00 0.00
4:52 pm 16:52 Cloudy 35 1.7 26 -3.3 70 70 WSW 12 19 29.86 1011 10 16 0.00 0.00
5:52 pm 17:52 Cloudy 35 1.7 26 -3.3 70 70 WSW 12 19 29.89 1012 10 16 0.00 0.00
6:52 pm 18:52 Cloudy 35 1.7 27 -2.8 72 72 WSW 12 19 29.90 1012 10 16 0.00 0.00
7:52 pm 19:52 Cloudy 35 1.7 26 -3.3 70 70 WSW 14 22 29.90 1013 10 16 0.00 0.00
8:52 pm 20:52 Cloudy 35 1.7 27 -2.8 72 72 WSW 10 17 29.90 1012 10 16 0.00 0.00
9:52 pm 21:52 Cloudy 35 1.7 25 -3.9 67 67 W 18 30 29.90 1013 10 16 0.00 0.00
10:52 pm 22:52 Cloudy 34 1.1 25 -3.9 70 70 W 12 19 29.90 1013 10 16 0.00 0.00
11:52 pm 23:52 Cloudy 34 1.1 25 -3.9 70 70 W 14 22 29.91 1013 10 16 0.00 0.00

Powered by AerisWeather